P/2021 C2 ( PanSTARRS )

Japanese version
Home page
Updated on April 4, 2021

---------------------------------------------------------------------

* Profile

Discovery Date February 12, 2021
Magnitude 22.1 mag
Discoverer Pan-STARRS 1 telescope (Haleakala)

* Pictures

* Orbital Elements

Epoch 2021 Mar. 7.0 TT = JDT 2459280.5
T 2021 Feb. 27.09774 TT                                 Rudenko
q   4.8903774            (2000.0)            P               Q
n   0.03345084     Peri.   79.11673     -0.75992159     -0.55254226
a   9.5396261      Node    66.47655     +0.34656782     -0.79001056
e   0.4873617      Incl.   21.92541     +0.54991811     -0.26566966
P  29.5
From 29 observations 2021 Jan. 17-Mar. 5, mean residual 0".3.

* Magnitudes Graph

        m1 = 11.5 + 5 log d + 10.0 log r

---------------------------------------------------------------------

The orbital elements are published on M.P.E.C. 2021-F20.
The magnitudes graphs are made with Comet for Windows.

---------------------------------------------------------------------

Copyright(C) Seiichi Yoshida (comet@aerith.net). All rights reserved.